[[{"header":{"parameterUnit":"m.s-1","parameterCategory":1,"la1":30.2991,"la2":30.254,"lo1":-89.0895,"lo2":-89.0444,"dy":0.0017,"dx":0.0017,"nx":28,"ny":28,"refTime":"2025-07-26T21:00:00:Z","depth":0,"parameterNumber":2,"parameterNumberName":"U-component_of_WINDS"},"data":[0,0,0,0,0,0,0,0,0,0,0,0,0,0,0,0,0,0,0,0,0,0,0,0,0,0,0,0,0,0,0,0,0,0,0,0,0,0,0,0,0,0,0,0,0,0,0,0,0,0,0,0,0,0,0,0,0,0,1.1656,1.1656,0,1.1646,1.1646,1.1646,1.1616,1.1615,1.1614,1.1614,1.1604,1.1604,1.1605,0,0,0,0,0,0,0,0,0,0,0,0,0,1.1649,1.1649,1.1656,1.1656,1.1655,1.1646,1.1646,1.1646,1.1616,1.1615,1.1614,1.1614,1.1604,1.1604,1.1605,0,0,0,0,0,0,0,0,0,0,0,0,0,1.1647,1.1649,1.1656,1.1639,1.1638,1.1646,1.1646,1.1646,1.1616,1.1615,1.1614,1.1613,1.1604,1.1604,1.1605,1.1628,0,0,1.1606,1.1607,0,0,0,0,0,0,0,0,1.1647,1.1647,1.1642,1.164,1.1639,1.1631,1.164,1.164,1.1616,1.1624,1.1614,1.1613,1.1614,1.1614,1.1614,1.1628,1.1627,1.1607,1.1607,1.1607,1.1607,0,0,0,0,0,0,0,1.1647,1.1647,1.1652,1.1642,1.164,1.1633,1.1631,1.164,1.1625,1.1624,1.1621,1.1621,1.1613,1.1613,1.1613,1.1627,1.1607,1.1607,1.1607,1.1608,1.1662,1.1663,0,0,0,0,0,0,1.1649,1.1647,1.1652,1.1652,1.164,1.1634,1.1632,1.1635,1.1625,1.1622,1.1622,1.1619,1.1613,1.1613,1.1613,1.1641,1.1607,1.1608,1.1608,1.1661,1.1662,1.1663,0,0,0,0,0,0,1.1649,1.165,1.1653,1.1649,1.1649,1.1635,1.1638,1.1635,1.1636,1.1623,1.162,1.1625,1.1612,1.1612,1.1625,1.164,1.1608,1.1608,1.166,1.1661,1.1663,1.1697,0,0,0,0,0,0,1.1649,1.165,1.1659,1.1649,1.1649,1.1665,1.1639,1.1636,1.1637,1.1634,1.1626,1.1623,1.1611,1.1625,1.1626,1.1641,1.1609,1.1658,1.166,1.1662,1.1694,1.17,1.1704,0,0,0,0,0,1.1649,1.1668,1.1659,1.166,1.1659,1.1666,1.1665,1.1651,1.1638,1.1647,1.1639,1.1624,1.1638,1.1626,1.1627,1.1642,1.1657,1.166,1.1662,1.1692,1.1699,1.1704,0,0,0,0,0,0,1.1679,1.1667,1.1657,1.1673,1.1671,1.1661,1.1671,1.1658,1.166,1.1657,1.1639,1.1638,1.1654,1.1649,1.1636,1.1666,1.1645,1.1648,1.1668,1.1674,1.1678,1.1679,1.1609,0,0,0,0,0,1.1688,1.1694,1.1683,1.1698,1.1698,1.1685,1.1687,1.1677,1.1673,1.1672,1.1665,1.1663,1.1667,1.167,1.1673,1.1694,1.1692,1.1705,1.171,1.1714,1.1716,1.1728,1.1734,1.1672,1.1672,1.1672,0,0,1.1706,1.17,1.1704,1.1704,1.1701,1.1708,1.1684,1.1692,1.1698,1.1673,1.1685,1.168,1.1677,1.1694,1.1701,1.1691,1.1733,1.1717,1.172,1.1721,1.1732,1.1738,1.1743,1.1673,1.1673,1.1673,0,0,1.1742,1.1737,1.1751,1.1749,1.1744,1.1736,1.1739,1.1731,1.1727,1.1739,1.1722,1.1728,1.1735,1.1734,1.1734,1.1771,1.1758,1.1773,1.1798,1.181,1.1815,1.1819,1.1834,1.1839,1.1776,1.1776,1.1776,0,1.1764,1.1774,1.1759,1.1769,1.177,1.1749,1.1763,1.1762,1.1759,1.176,1.1749,1.1759,1.1754,1.1772,1.1781,1.1782,1.1786,1.1774,1.1816,1.182,1.1824,1.1837,1.1843,1.1778,1.1777,1.1777,1.1777,0,1.1803,1.181,1.1822,1.182,1.1823,1.1834,1.1822,1.1826,1.1816,1.1809,1.1822,1.1817,1.1819,1.1822,1.1812,1.1839,1.1833,1.1819,1.1798,1.1832,1.1844,1.185,1.178,1.178,1.1779,1.1779,0,0,1.1857,1.1848,1.1853,1.1853,1.1847,1.1853,1.1864,1.1867,1.1872,1.1871,1.1881,1.1888,1.1876,1.1876,1.1865,1.1876,1.1908,1.1861,1.186,1.187,1.1939,1.195,1.1956,1.1899,1.19,1.19,1.1939,0,1.1892,1.1912,1.1899,1.1921,1.1928,1.1909,1.1919,1.1917,1.1911,1.1917,1.191,1.1916,1.1899,1.1899,1.1908,1.1902,1.1921,1.1899,1.1908,1.1909,1.1911,1.1962,1.1974,1.2011,1.1944,1.1945,1.1945,0,1.1936,1.1938,1.196,1.1955,1.1958,1.1967,1.1969,1.1975,1.1973,1.1968,1.1969,1.1956,1.1968,1.1948,1.1964,1.1949,1.1953,1.195,1.1951,1.1952,1.193,1.1966,1.2022,1.2028,1.1953,1.1952,1.1952,0,1.1975,1.1983,1.1998,1.1998,1.1992,1.1999,1.1997,1.1994,1.1997,1.1999,1.2001,1.2004,1.2006,1.201,1.1999,1.1985,1.2017,1.1995,1.2014,1.2015,1.2022,1.2022,1.2081,1.2023,1.2023,1.2023,1.2023,0,1.2016,1.2031,1.2015,1.2024,1.2041,1.2027,1.2043,1.2039,1.2037,1.2046,1.2029,1.2037,1.2022,1.2029,1.202,1.2036,1.2037,1.2034,1.2032,1.2036,1.2036,1.2038,1.2036,1.2024,1.2024,1.2024,1.2023,0,1.2062,1.2052,1.2067,1.2061,1.206,1.2072,1.2067,1.2075,1.2069,1.208,1.2082,1.2071,1.2079,1.2068,1.2075,1.2069,1.2091,1.2084,1.2092,1.209,1.211,1.2109,1.2173,1.2181,1.2117,1.2118,1.2118,0,1.2089,1.21,1.2095,1.21,1.2099,1.2107,1.211,1.2097,1.2101,1.2101,1.211,1.2116,1.2121,1.2134,1.2127,1.2132,1.2126,1.2149,1.2127,1.2132,1.2128,1.2128,1.213,1.2153,1.2154,1.2155,1.2155,0,1.2139,1.2134,1.214,1.2144,1.2149,1.2151,1.2153,1.2158,1.2144,1.215,1.2158,1.2161,1.2168,1.2175,1.2179,1.2177,1.2165,1.2162,1.2167,1.2172,1.2176,1.2175,1.2105,1.2161,1.216,1.216,1.2159,1.2159,1.2177,1.2187,1.2185,1.2193,1.2192,1.2195,1.2203,1.2198,1.2204,1.2209,1.2201,1.2212,1.2211,1.2215,1.2214,1.2223,1.2213,1.222,1.2222,1.2224,1.2227,1.2174,1.2223,1.2223,1.2223,1.2223,1.2223,0,1.2227,1.2226,1.2232,1.2236,1.2242,1.2229,1.2231,1.2236,1.2246,1.2246,1.2251,1.2261,1.2268,1.2263,1.2269,1.2277,1.2271,1.2279,1.2279,1.2279,1.2235,1.2231,1.2284,1.2284,1.2284,1.2284,1.2284,1.2283,1.2254,1.227,1.2265,1.2282,1.228,1.229,1.2292,1.2295,1.2295,1.2307,1.2313,1.2309,1.2308,1.2314,1.232,1.2318,1.2322,1.2332,1.2328,1.2288,1.2282,1.2276,1.2272,1.2333,1.2333,1.2372,1.2372,1.2372]},{"header":{"parameterUnit":"m.s-1","parameterCategory":1,"la1":30.2991,"la2":30.254,"lo1":-89.0895,"lo2":-89.0444,"dy":0.0017,"dx":0.0017,"nx":28,"ny":28,"refTime":"2025-07-26T21:00:00:Z","depth":0,"parameterNumber":3,"parameterNumberName":"V-component_of_WINDS"},"data":[0,0,0,0,0,0,0,0,0,0,0,0,0,0,0,0,0,0,0,0,0,0,0,0,0,0,0,0,0,0,0,0,0,0,0,0,0,0,0,0,0,0,0,0,0,0,0,0,0,0,0,0,0,0,0,0,0,0,-3.7105,-3.7106,0,-3.7153,-3.7154,-3.7154,-3.7146,-3.7145,-3.7144,-3.7143,-3.7188,-3.719,-3.7192,0,0,0,0,0,0,0,0,0,0,0,0,0,-3.7003,-3.7005,-3.7105,-3.7106,-3.7106,-3.7153,-3.7154,-3.7155,-3.7146,-3.7145,-3.7144,-3.7143,-3.7187,-3.719,-3.7192,0,0,0,0,0,0,0,0,0,0,0,0,0,-3.7049,-3.7006,-3.7105,-3.7108,-3.7109,-3.7153,-3.7154,-3.7155,-3.7146,-3.7145,-3.7143,-3.7142,-3.7187,-3.719,-3.7192,-3.7236,0,0,-3.7202,-3.7203,0,0,0,0,0,0,0,0,-3.7046,-3.7053,-3.7107,-3.7108,-3.7109,-3.7142,-3.7134,-3.7182,-3.7146,-3.7132,-3.7143,-3.7142,-3.7174,-3.7178,-3.7189,-3.7238,-3.724,-3.7202,-3.7204,-3.7205,-3.7206,0,0,0,0,0,0,0,-3.7043,-3.7051,-3.7124,-3.7108,-3.7109,-3.7106,-3.7111,-3.7143,-3.7159,-3.7133,-3.7132,-3.7138,-3.7174,-3.7186,-3.719,-3.7241,-3.7202,-3.7204,-3.7206,-3.7207,-3.7331,-3.7332,0,0,0,0,0,0,-3.704,-3.7048,-3.7123,-3.7126,-3.7074,-3.7109,-3.7114,-3.7133,-3.7159,-3.7161,-3.7139,-3.7138,-3.7182,-3.7187,-3.7192,-3.7247,-3.7205,-3.7208,-3.7209,-3.7329,-3.7331,-3.7333,0,0,0,0,0,0,-3.7038,-3.7046,-3.7121,-3.7087,-3.7096,-3.7112,-3.7132,-3.7134,-3.7147,-3.7164,-3.7166,-3.715,-3.7181,-3.7188,-3.7226,-3.7248,-3.7209,-3.7212,-3.7327,-3.733,-3.7332,-3.7356,0,0,0,0,0,0,-3.7035,-3.7046,-3.7063,-3.7087,-3.7098,-3.7155,-3.7134,-3.7136,-3.7153,-3.7151,-3.7174,-3.7176,-3.7181,-3.7222,-3.7229,-3.7251,-3.7214,-3.7325,-3.7328,-3.7331,-3.7353,-3.7358,-3.7363,0,0,0,0,0,-3.7031,-3.7066,-3.7064,-3.7073,-3.712,-3.7156,-3.7162,-3.7168,-3.7154,-3.7172,-3.7183,-3.7176,-3.7244,-3.7226,-3.7234,-3.7257,-3.7324,-3.7328,-3.7331,-3.7351,-3.7357,-3.7363,0,0,0,0,0,0,-3.7042,-3.7069,-3.7067,-3.7111,-3.7132,-3.7155,-3.7177,-3.7174,-3.7197,-3.7195,-3.7199,-3.7204,-3.7244,-3.7254,-3.7233,-3.7302,-3.7282,-3.7287,-3.7294,-3.7301,-3.7306,-3.7303,-3.7216,0,0,0,0,0,-3.7049,-3.7078,-3.71,-3.7137,-3.7147,-3.716,-3.7176,-3.7179,-3.72,-3.7208,-3.7222,-3.7241,-3.7268,-3.7284,-3.7309,-3.7354,-3.736,-3.7374,-3.7379,-3.7383,-3.7388,-3.7415,-3.7422,-3.7344,-3.7344,-3.7344,0,0,-3.7065,-3.7084,-3.7101,-3.7139,-3.7156,-3.7185,-3.7168,-3.7198,-3.722,-3.7212,-3.7251,-3.7261,-3.7283,-3.7326,-3.7345,-3.7336,-3.7411,-3.7388,-3.7391,-3.7393,-3.7419,-3.7427,-3.7433,-3.7346,-3.7345,-3.7345,0,0,-3.7109,-3.7126,-3.716,-3.7177,-3.7203,-3.7212,-3.722,-3.7244,-3.7252,-3.7291,-3.7286,-3.7311,-3.7356,-3.7373,-3.7387,-3.744,-3.7435,-3.7448,-3.7474,-3.75,-3.7507,-3.7512,-3.7533,-3.754,-3.7452,-3.7452,-3.7452,0,-3.7125,-3.717,-3.7177,-3.7209,-3.7227,-3.7223,-3.7258,-3.7274,-3.7306,-3.7318,-3.7307,-3.7365,-3.7379,-3.7427,-3.744,-3.7451,-3.7461,-3.7446,-3.7505,-3.7511,-3.7516,-3.7536,-3.7544,-3.7454,-3.7454,-3.7453,-3.7453,0,-3.7189,-3.7221,-3.7244,-3.7279,-3.7298,-3.7331,-3.7343,-3.7362,-3.7364,-3.7374,-3.7414,-3.7432,-3.7461,-3.7473,-3.7473,-3.7521,-3.7515,-3.7504,-3.7485,-3.7525,-3.7544,-3.7552,-3.7456,-3.7455,-3.7455,-3.7455,0,0,-3.724,-3.728,-3.7289,-3.7305,-3.7334,-3.7358,-3.7391,-3.7423,-3.744,-3.7462,-3.7491,-3.753,-3.7522,-3.7538,-3.754,-3.7563,-3.7607,-3.755,-3.7551,-3.7562,-3.7663,-3.7672,-3.7681,-3.7603,-3.7605,-3.7606,-3.7662,0,-3.7289,-3.735,-3.7358,-3.7412,-3.7441,-3.744,-3.7469,-3.749,-3.75,-3.7527,-3.7537,-3.7566,-3.7552,-3.7562,-3.7585,-3.7597,-3.7627,-3.7593,-3.763,-3.7632,-3.7627,-3.769,-3.7699,-3.7751,-3.7669,-3.767,-3.7671,0,-3.7353,-3.738,-3.7438,-3.7466,-3.7479,-3.7505,-3.7535,-3.756,-3.7584,-3.759,-3.761,-3.7611,-3.7645,-3.7624,-3.7672,-3.7648,-3.7664,-3.7672,-3.7674,-3.7679,-3.7655,-3.7698,-3.7767,-3.7776,-3.7683,-3.7682,-3.7681,0,-3.7387,-3.7438,-3.748,-3.7493,-3.7526,-3.7546,-3.756,-3.7583,-3.7602,-3.7628,-3.764,-3.7669,-3.7685,-3.7707,-3.7715,-3.7699,-3.7764,-3.7742,-3.777,-3.7771,-3.7785,-3.7784,-3.786,-3.7793,-3.7793,-3.7792,-3.7792,0,-3.7441,-3.7477,-3.7496,-3.7522,-3.7562,-3.7571,-3.761,-3.7624,-3.7645,-3.7673,-3.7672,-3.7698,-3.7707,-3.7734,-3.774,-3.7781,-3.7787,-3.7793,-3.7795,-3.7795,-3.7794,-3.7806,-3.7803,-3.7794,-3.7794,-3.7794,-3.7793,0,-3.7486,-3.75,-3.7546,-3.7575,-3.7583,-3.7612,-3.7636,-3.7661,-3.7672,-3.7708,-3.7716,-3.7733,-3.7766,-3.7777,-3.7815,-3.7819,-3.7867,-3.7864,-3.786,-3.786,-3.7889,-3.7887,-3.7975,-3.7988,-3.7911,-3.7912,-3.7913,0,-3.752,-3.7548,-3.7581,-3.7601,-3.7617,-3.7649,-3.7669,-3.7679,-3.77,-3.7731,-3.7753,-3.7786,-3.7813,-3.7865,-3.788,-3.791,-3.791,-3.7939,-3.7914,-3.7914,-3.7912,-3.7911,-3.7915,-3.7944,-3.7944,-3.7945,-3.7945,0,-3.758,-3.7587,-3.7617,-3.7651,-3.7676,-3.7702,-3.7727,-3.7743,-3.7757,-3.778,-3.7815,-3.7837,-3.7878,-3.7911,-3.7943,-3.7956,-3.7954,-3.7953,-3.7962,-3.7962,-3.796,-3.7964,-3.7874,-3.7951,-3.7951,-3.795,-3.795,-3.795,-3.7622,-3.7648,-3.7677,-3.7711,-3.7732,-3.7756,-3.7782,-3.7797,-3.7827,-3.7863,-3.7867,-3.7905,-3.793,-3.7972,-3.7988,-3.8017,-3.8009,-3.8021,-3.8024,-3.8027,-3.8031,-3.7954,-3.8023,-3.8022,-3.8022,-3.8022,-3.8022,0,-3.7684,-3.7703,-3.7734,-3.7772,-3.7799,-3.7796,-3.7824,-3.7847,-3.7881,-3.7906,-3.7934,-3.7975,-3.8008,-3.8026,-3.8059,-3.8079,-3.8079,-3.8088,-3.8087,-3.8091,-3.8035,-3.8026,-3.8088,-3.8088,-3.8088,-3.8088,-3.8088,-3.8088,-3.772,-3.7764,-3.7775,-3.783,-3.7848,-3.7887,-3.7904,-3.7927,-3.7946,-3.7993,-3.8022,-3.8034,-3.8057,-3.8092,-3.8122,-3.8126,-3.8139,-3.8149,-3.8153,-3.8101,-3.8094,-3.8088,-3.8079,-3.8151,-3.8152,-3.8207,-3.8207,-3.8208]}]]